Weather History for Marathon, FL

Change the Weather History Date:

Saturday, July 27, 2013

  Actual Average Record
Temperature  
Mean Temperature 84 °F 85 °F  
Max Temperature 91 °F 91 °F 97 °F (2005)
Min Temperature 77 °F 80 °F 75 °F (2001)
Degree Days  
Heating Degree Days 0 0  
Month to date heating degree days 0 0  
Since 1 June heating degree days 0 0  
Since 1 July heating degree days 0 0  
Cooling Degree Days 19 20  
Month to date cooling degree days 536 540  
Year to date cooling degree days 2982 2677  
Since 1 June cooling degree days 1152 1134  
Growing Degree Days 34 (Base 50)    
Moisture  
Dew Point 73 °F    
Average Humidity 61    
Maximum Humidity 70    
Minimum Humidity 52    
Precipitation  
Precipitation 1.23 in 0.16 in 1.23 in (2013)
Month to date precipitation 7.94 3.65  
Year to date precipitation 36.95 21.20  
Snow  
Snow 0.00 in - - ()
Month to date snowfall 0.0  
Since 1 June snowfall 0.0  
Since 1 July snowfall 0.0  
Snow Depth 0.00 in    
Sea Level Pressure  
Sea Level Pressure 30.00 in    
Wind  
Wind Speed 3 mph (West)    
Max Wind Speed 14 mph    
Max Gust Speed 20 mph    
Visibility 9 miles    
Events Rain    
T = Trace of Precipitation, MM = Missing Value Source: NWS Daily Summary

Daily Weather History Graph

Daily Weather History Graph

Search for Another Location

Airport:

Trip Planner

Search our weather history database for the weather conditions in past years. The results will help you decide how hot, cold, wet, or windy it might be!

Date:

Astronomy

Jul. 27, 2013 Rise Set
Actual Time 6:50 AM EDT 8:11 PM EDT
Civil Twilight 6:25 AM EDT 8:35 PM EDT
Nautical Twilight 5:55 AM EDT 9:05 PM EDT
Astronomical Twilight 5:25 AM EDT 9:35 PM EDT
Moon 11:42 PM EDT (7/27) 11:46 AM EDT (7/27)
Length of Visible Light 14h 10m
Length of Day
13h 21m
Waning Gibbous, 71% of the Moon is Illuminated
Jul 27
Waning Gibbous
Jul 29
Last Quarter
Aug 6
New
Aug 14
First Quarter
Aug 20
Full

Hourly Weather History & Observations

Time (EDT) Temp. Heat Index Dew Point Humidity Pressure Visibility Wind Dir Wind Speed Gust Speed Precip Events Conditions
12:53 AM 84.9 °F 91.4 °F 73.0 °F 67% 30.02 in 10.0 mi Variable 4.6 mph - N/A   Partly Cloudy
1:53 AM 84.9 °F 92.1 °F 73.9 °F 69% 30.01 in 10.0 mi West 4.6 mph - N/A   Mostly Cloudy
2:46 AM 84.2 °F 90.9 °F 73.4 °F 70% 29.98 in 10.0 mi West 5.8 mph - N/A   Mostly Cloudy
2:53 AM 84.9 °F 92.1 °F 73.9 °F 69% 29.98 in 10.0 mi West 5.8 mph - N/A   Mostly Cloudy
3:09 AM 84.2 °F 90.9 °F 73.4 °F 70% 29.98 in 10.0 mi Variable 6.9 mph - N/A   Scattered Clouds
3:53 AM 86.0 °F 93.8 °F 73.9 °F 67% 29.97 in 10.0 mi West 5.8 mph - N/A   Mostly Cloudy
4:34 AM 84.2 °F 90.9 °F 73.4 °F 70% 29.97 in 10.0 mi WNW 6.9 mph - N/A   Scattered Clouds
4:53 AM 84.9 °F 91.4 °F 73.0 °F 67% 29.97 in 10.0 mi WNW 4.6 mph - N/A   Partly Cloudy
5:53 AM 84.9 °F 91.4 °F 73.0 °F 67% 29.98 in 10.0 mi NW 4.6 mph - N/A   Scattered Clouds
6:53 AM 84.0 °F 89.0 °F 71.1 °F 65% 29.98 in 10.0 mi NW 4.6 mph - N/A   Partly Cloudy
7:53 AM 84.9 °F 90.7 °F 72.0 °F 65% 30.01 in 10.0 mi NW 4.6 mph - N/A   Clear
8:53 AM 87.1 °F 93.6 °F 72.0 °F 61% 30.02 in 10.0 mi NNW 5.8 mph - N/A   Clear
9:53 AM 89.1 °F 96.0 °F 72.0 °F 57% 30.02 in 10.0 mi Variable 3.5 mph - N/A   Clear
10:53 AM 90.0 °F 96.9 °F 72.0 °F 55% 30.03 in 10.0 mi WNW 5.8 mph - N/A   Clear
11:53 AM 91.0 °F 98.2 °F 72.0 °F 53% 30.02 in 10.0 mi West 4.6 mph - N/A   Clear
12:35 PM 89.6 °F 98.2 °F 73.4 °F 59% 30.02 in 10.0 mi Calm Calm - N/A   Overcast
12:53 PM 88.0 °F 94.7 °F 72.0 °F 59% 30.02 in 10.0 mi Calm Calm - N/A   Overcast
1:00 PM 87.8 °F 95.6 °F 73.4 °F 62% 30.02 in 10.0 mi Calm Calm - N/A   Overcast
1:53 PM 88.0 °F 94.7 °F 72.0 °F 59% 30.01 in 10.0 mi South 3.5 mph - N/A   Mostly Cloudy
2:53 PM 89.1 °F 100.2 °F 75.9 °F 65% 29.98 in 10.0 mi South 6.9 mph - N/A   Overcast
3:05 PM 87.8 °F 97.6 °F 75.2 °F 66% 29.98 in 10.0 mi South 5.8 mph - N/A   Overcast
3:30 PM 86.0 °F 95.1 °F 75.2 °F 70% 29.99 in 10.0 mi Variable 4.6 mph - N/A   Overcast
3:53 PM 87.1 °F 97.3 °F 75.9 °F 69% 29.98 in 10.0 mi Calm Calm - N/A   Overcast
4:53 PM 90.0 °F 101.3 °F 75.9 °F 63% 29.98 in 10.0 mi Calm Calm - N/A   Mostly Cloudy
5:53 PM 90.0 °F 97.9 °F 73.0 °F 57% 29.97 in 10.0 mi WNW 4.6 mph - N/A   Partly Cloudy
6:51 PM 89.6 °F 96.2 °F 71.6 °F 55% 29.97 in 10.0 mi Variable 5.8 mph - N/A   Mostly Cloudy
6:53 PM 89.1 °F 96.0 °F 72.0 °F 57% 29.96 in 10.0 mi WSW 4.6 mph - N/A   Mostly Cloudy
7:38 PM 87.8 °F 95.6 °F 73.4 °F 62% 29.97 in 10.0 mi Calm Calm - N/A   Scattered Clouds
7:53 PM 87.1 °F 93.6 °F 72.0 °F 61% 29.98 in 10.0 mi Calm Calm - N/A   Partly Cloudy
8:53 PM 84.9 °F 90.7 °F 72.0 °F 65% 29.99 in 10.0 mi Calm Calm - N/A   Clear
9:53 PM 84.9 °F 90.7 °F 72.0 °F 65% 30.01 in 10.0 mi Calm Calm - N/A   Partly Cloudy
10:05 PM 84.2 °F 89.6 °F 71.6 °F 66% 30.01 in 10.0 mi Calm Calm - N/A   Mostly Cloudy
10:19 PM 84.2 °F 89.6 °F 71.6 °F 66% 30.02 in 10.0 mi Calm Calm - N/A   Overcast
10:49 PM 84.2 °F 90.9 °F 73.4 °F 70% 30.02 in 10.0 mi Calm Calm - N/A   Mostly Cloudy
10:53 PM 84.9 °F 90.7 °F 72.0 °F 65% 30.01 in 10.0 mi Calm Calm - N/A   Mostly Cloudy
11:43 PM 84.2 °F 92.3 °F 75.2 °F 74% 30.03 in 1.8 mi West 10.4 mph 17.3 mph 0.09 in Rain Light Rain
11:51 PM 78.8 °F - 71.6 °F 78% 30.03 in 0.2 mi Variable 4.6 mph 19.6 mph 0.54 in Rain Heavy Rain
11:53 PM 77.0 °F - 70.0 °F 79% 30.03 in 0.2 mi Variable 6.9 mph 19.6 mph 0.65 in Rain Heavy Rain